Wind_Speed
37 44 52 60 65 74 81 88 91 102 107 109 105 103 98 92 85 81 79 79 77 78 76 73 72 68 63 59 55 52 45 42 43 41 42 42 42 41 41 40 41 41 42 44 44
27 35 42 49 54 64 69 79 84 91 99 104 106 103 103 94 89 85 79 80 77 78 76 74 72 71 68 62 57 55 50 46 46 45 45 46 45 45 45 44 45 46 47 49 50
28 30 31 37 47 56 61 73 79 84 91 97 102 102 102 94 88 88 80 79 77 77 76 73 71 71 70 64 60 57 55 52 51 51 51 50 49 50 49 49 50 51 53 54 55
22 32 39 41 47 57 62 65 75 81 85 91 93 96 97 93 88 86 81 77 77 77 76 74 71 70 71 67 63 58 57 57 57 56 55 53 54 56 55 55 56 56 57 57 59
28 33 41 51 53 62 66 67 74 77 82 87 88 90 91 90 85 83 80 76 78 76 77 73 70 68 69 70 66 63 62 60 60 60 58 58 58 59 58 58 60 61 60 62 65
30 40 43 47 60 63 60 63 69 71 78 84 85 85 86 84 84 81 77 74 78 75 77 72 69 67 67 68 67 67 65 66 64 62 62 61 61 63 62 62 64 65 66 69 72
26 25 34 46 48 45 55 59 63 68 74 78 78 78 79 80 80 78 74 72 75 75 77 70 64 64 60 64 61 62 63 63 64 65 66 67 69 68 66 68 71 72 72 73 73
27 25 26 26 32 40 49 53 55 60 67 71 70 72 72 74 74 73 71 68 72 73 73 69 68 71 68 69 66 67 71 70 68 66 67 68 71 69 69 71 74 70 73 75 76
33 30 33 34 33 44 45 46 52 57 61 61 62 65 66 67 68 70 68 65 69 73 69 68 67 67 67 67 69 69 70 69 69 69 69 68 71 71 69 71 74 73 75 79 81
37 38 39 37 37 39 41 45 51 53 51 51 54 57 60 61 62 64 66 66 67 70 71 68 66 65 65 65 65 69 69 70 69 70 70 70 70 74 69 70 74 78 80 81 81
35 35 37 38 39 43 46 50 53 49 45 47 48 49 50 51 54 58 61 64 64 64 64 64 64 65 67 67 65 64 67 68 69 69 68 70 69 71 74 77 78 79 81 81 83
38 35 36 39 39 40 41 41 41 39 35 32 31 33 36 39 44 48 53 59 61 61 63 65 64 60 63 63 62 63 62 61 63 66 66 71 74 74 76 77 78 78 78 78 76
41 42 41 45 45 42 38 33 29 25 24 24 24 26 29 35 40 46 52 56 59 61 63 65 65 66 67 66 68 69 70 71 71 71 70 70 74 75 75 75 75 74 69 64 65
41 41 42 42 38 35 31 28 26 23 19 19 21 24 26 29 34 40 50 55 58 59 61 61 61 62 65 66 67 67 68 69 71 71 72 74 74 74 71 68 65 64 64 64 61
38 36 34 32 33 30 27 23 19 18 19 17 17 20 21 22 27 30 39 47 52 55 55 55 56 59 60 61 63 67 68 70 71 69 67 69 66 63 61 62 63 64 62 60 58
34 29 28 27 26 24 20 20 21 20 18 17 17 17 17 20 23 27 30 33 41 47 50 52 55 57 60 64 66 67 67 64 62 59 55 55 57 61 63 63 62 61 57 50 42
27 23 24 25 24 23 22 21 19 19 19 21 19 19 18 17 16 16 18 22 28 32 37 41 45 46 49 50 49 48 46 46 46 49 53 57 60 61 60 54 47 37 28 20 13
48 38 25 17 22 21 21 20 21 20 20 20 20 20 18 17 16 16 16 19 22 25 28 30 32 33 33 35 38 40 42 44 46 39 32 25 18 13 10 8 7 8 8 6 4
52 48 41 32 22 14 12 14 16 15 15 16 15 15 14 14 15 14 15 17 18 19 23 27 29 32 35 37 34 30 23 20 21 21 16 10 7 5 5 4 4 5 7 9 8
46 45 44 43 37 30 25 19 13 11 10 10 10 9 11 10 10 8 8 9 11 12 12 11 11 10 11 10 10 9 7 7 8 8 8 7 9 11 11 11 13 16 19 20 21
37 39 39 41 40 39 36 32 29 25 22 18 16 15 14 14 13 12 11 9 8 9 10 10 11 12 13 14 15 15 16 16 16 17 19 20 21 23 24 24 24 24 23 21 18
27 29 31 32 34 34 33 33 33 35 35 34 33 31 30 29 27 27 27 27 27 26 27 28 27 28 28 28 26 25 24 23 24 25 23 23 24 24 23 21 19 17 16 15 13
15 18 21 23 25 25 26 28 29 28 28 29 29 28 29 29 27 26 26 26 28 28 26 25 22 21 22 20 20 20 22 21 19 17 17 15 14 13 12 11 9 7 6 6 10
8 8 9 11 15 17 16 17 18 20 20 19 20 19 18 17 16 14 14 16 17 16 16 16 15 13 11 9 8 8 10 11 12 11 12 13 9 5 3 1 1 3 5 7 11
7 3 3 2 3 4 6 10 11 9 11 12 13 13 12 12 10 9 8 8 8 8 9 9 9 10 9 7 5 5 3 3 1 2 1 1 1 5 5 7 9 10 13 14 16
12 12 11 7 6 7 9 7 4 3 6 8 10 10 9 8 8 7 7 7 6 7 4 5 5 6 8 8 8 8 8 5 5 5 8 10 12 13 12 16 16 19 21 22 23
23 20 16 17 16 16 16 18 17 16 15 13 12 11 13 13 14 15 14 13 13 14 15 14 15 16 19 12 18 19 17 19 19 16 18 16 14 15 20 25 26 26 25 27 28
Wind_Direction
203 210 209 209 213 212 209 212 214 217 220 221 222 224 226 225 226 228 226 226 229 231 232 233 233 234 235 239 241 245 246 249 249 252 255 262 262 266 270 270 271 273 274 276 278
178 195 203 199 202 206 206 205 206 210 211 215 217 220 224 223 225 229 224 227 228 231 231 234 233 234 235 238 240 244 246 245 250 250 254 263 262 265 269 270 271 273 274 278 280
163 170 184 190 191 195 199 202 200 203 205 210 214 216 221 221 222 226 224 225 226 229 232 232 234 234 235 237 240 244 247 247 248 251 255 261 262 266 267 269 269 273 274 278 279
137 154 164 175 182 189 192 194 193 197 200 205 209 212 216 218 219 223 224 223 225 229 230 232 233 236 236 238 239 242 247 249 251 254 257 259 261 265 268 271 273 275 276 278 281
124 143 158 165 174 188 193 189 188 191 195 200 205 208 212 215 217 220 223 223 225 228 231 231 233 236 239 241 243 243 245 250 254 256 258 260 263 266 269 271 273 275 276 279 281
121 140 156 172 177 183 186 184 185 188 192 197 201 205 209 212 215 218 221 222 224 228 231 233 235 237 240 244 247 249 250 250 252 256 260 263 266 268 270 272 275 277 278 280 281
110 142 158 168 175 183 181 181 182 185 190 191 197 202 206 209 213 216 220 222 224 229 232 233 235 236 238 241 244 248 252 254 256 258 261 263 265 268 272 274 276 278 280 282 283
77 114 136 151 161 161 169 175 179 180 186 191 195 200 204 209 213 216 220 222 224 229 233 234 234 237 240 242 243 245 250 254 259 260 261 264 268 270 273 276 278 281 282 285 288
95 107 123 129 146 153 159 167 173 178 183 189 195 199 203 208 211 216 220 222 223 227 231 234 238 241 243 247 250 254 255 256 258 261 264 268 272 272 276 278 281 284 285 287 288
97 113 122 129 139 147 155 161 165 172 178 183 191 198 203 208 212 217 220 223 225 230 234 237 239 242 247 249 251 254 257 261 262 265 268 271 273 276 277 278 281 284 284 283 283
98 114 122 127 133 141 150 154 162 169 174 180 189 195 203 209 214 219 222 225 228 230 234 237 239 241 244 248 251 256 261 263 266 268 270 272 273 274 276 279 279 280 282 282 283
88 105 112 119 122 130 139 148 157 166 173 182 191 204 212 217 219 220 223 225 228 229 232 235 235 238 246 249 250 254 258 259 263 266 268 271 273 274 276 277 278 280 282 284 286
85 96 101 103 108 112 115 121 132 146 163 176 188 201 208 214 218 219 218 217 219 223 227 232 236 240 244 248 253 256 258 262 265 267 269 271 273 275 276 277 278 281 284 286 288
80 94 102 106 108 110 114 120 128 138 153 170 184 195 203 212 217 217 217 217 219 225 231 236 240 244 249 252 255 258 262 264 266 269 271 273 275 276 277 278 280 281 285 287 287
82 86 94 103 111 114 120 127 136 148 153 160 172 185 197 204 212 216 220 226 227 232 237 241 247 250 253 257 260 262 265 267 269 272 273 275 275 276 276 278 282 283 283 283 284
82 92 99 103 108 113 120 129 139 145 147 150 159 174 186 198 206 214 220 226 231 235 240 244 248 251 254 258 262 264 266 268 272 273 273 274 276 278 278 279 280 280 280 280 280
68 75 107 114 115 113 113 117 123 125 129 131 132 135 142 151 166 184 205 217 228 235 242 247 250 253 255 258 261 264 265 267 272 276 278 279 279 276 277 277 275 274 271 273 280
59 68 84 121 119 117 123 124 127 130 130 134 137 141 149 158 170 183 197 209 220 228 233 240 245 249 254 259 263 267 271 273 278 281 279 277 273 268 263 258 251 251 246 236 232
62 65 68 77 93 110 110 134 144 147 152 157 161 170 180 185 191 201 218 228 236 245 251 257 259 260 263 266 267 269 263 259 262 270 274 268 256 227 209 189 161 135 125 118 116
68 70 71 73 77 82 88 94 110 132 148 159 175 184 193 204 208 208 205 205 210 222 229 235 236 239 242 244 244 245 246 236 226 200 174 140 113 104 104 105 109 105 93 87 83
75 74 74 77 78 81 84 87 90 94 101 105 109 114 124 130 135 138 136 139 146 147 143 138 133 129 128 123 120 121 127 128 122 109 104 98 95 93 91 92 89 91 93 95 92
76 79 79 80 83 85 84 85 88 93 99 101 104 106 107 108 109 108 104 104 107 112 113 111 109 106 105 106 105 104 101 98 95 93 91 91 91 88 88 87 82 83 82 75 63
53 71 82 88 90 87 89 90 93 96 100 101 100 104 104 106 103 106 108 111 115 114 114 114 112 112 112 114 108 106 105 101 100 98 98 94 100 102 104 103 97 91 72 27 358
32 50 54 68 84 94 96 94 99 105 109 111 109 113 109 106 105 100 101 108 115 116 121 124 123 123 125 124 116 116 106 102 91 83 73 77 80 74 71 79 19 14 15 348 356
315 341 354 351 34 12 67 111 116 120 130 136 143 144 148 150 151 143 132 146 151 155 160 165 165 165 168 166 160 158 148 131 69 66 79 120 273 325 304 311 320 318 328 326 330
296 296 291 278 287 293 295 304 267 216 180 177 185 186 190 199 196 192 203 210 196 213 233 228 245 261 280 272 248 255 269 266 253 264 267 272 259 257 263 280 287 301 307 307 310
286 283 280 276 278 278 277 283 286 280 272 269 260 245 229 234 232 229 237 246 245 249 255 255 261 265 271 269 279 292 280 270 274 269 274 281 283 271 268 272 277 288 296 300 307
Height
10381 10394 10408 10423 10443 10464 10485 10508 10532 10556 10582 10603 10624 10644 10658 10674 10688 10700 10712 10723 10731 10744 10754 10764 10773 10781 10788 10792 10796 10801 10805 10810 10813 10816 10818 10820 10822 10823 10824 10824 10824 10823 10823 10822 10821
10382 10392 10405 10419 10437 10460 10478 10499 10523 10542 10568 10589 10612 10632 10648 10665 10681 10692 10706 10717 10726 10736 10747 10756 10765 10774 10781 10786 10790 10795 10800 10804 10807 10810 10812 10814 10816 10817 10818 10818 10818 10817 10815 10814 10814
10383 10394 10410 10425 10440 10458 10475 10491 10512 10533 10557 10580 10600 10622 10638 10656 10673 10685 10699 10710 10721 10729 10740 10750 10758 10766 10774 10780 10784 10789 10795 10798 10800 10802 10805 10808 10809 10809 10810 10811 10810 10809 10807 10806 10804
10393 10398 10410 10423 10440 10453 10468 10488 10507 10527 10551 10572 10594 10614 10632 10649 10667 10679 10692 10705 10714 10723 10732 10743 10751 10758 10766 10773 10779 10784 10787 10790 10793 10795 10798 10800 10801 10801 10801 10803 10801 10800 10798 10797 10795
10401 10408 10415 10425 10439 10449 10464 10485 10504 10525 10546 10568 10591 10610 10627 10645 10661 10674 10686 10700 10709 10718 10726 10736 10745 10753 10760 10766 10772 10775 10779 10782 10785 10788 10790 10792 10793 10792 10793 10793 10790 10789 10789 10788 10785
10415 10417 10423 10433 10439 10452 10473 10494 10512 10531 10549 10569 10589 10607 10624 10643 10657 10670 10682 10694 10704 10712 10721 10731 10740 10747 10753 10758 10763 10768 10771 10774 10777 10779 10781 10783 10784 10783 10785 10784 10781 10778 10778 10776 10771
10434 10434 10439 10444 10455 10472 10487 10503 10519 10536 10556 10573 10591 10609 10624 10641 10655 10667 10678 10690 10701 10708 10717 10728 10735 10740 10746 10750 10754 10758 10761 10765 10768 10772 10773 10774 10771 10773 10775 10772 10768 10767 10767 10761 10758
10449 10452 10457 10465 10476 10488 10501 10515 10531 10547 10564 10580 10597 10612 10627 10641 10653 10666 10676 10687 10697 10705 10713 10721 10725 10731 10737 10742 10745 10747 10751 10757 10759 10762 10762 10764 10758 10764 10764 10760 10752 10756 10752 10748 10746
10463 10466 10470 10478 10490 10501 10514 10527 10541 10557 10572 10588 10603 10617 10629 10641 10652 10662 10673 10682 10691 10699 10706 10715 10721 10726 10731 10735 10739 10741 10744 10747 10749 10751 10752 10753 10749 10750 10752 10747 10741 10743 10740 10735 10732
10479 10483 10488 10494 10503 10514 10525 10537 10553 10568 10582 10595 10608 10620 10631 10641 10651 10660 10670 10678 10687 10695 10702 10710 10715 10720 10724 10727 10730 10732 10735 10736 10739 10740 10742 10742 10741 10733 10742 10734 10730 10729 10725 10721 10717
10495 10500 10506 10511 10517 10526 10537 10547 10562 10577 10591 10602 10613 10624 10634 10643 10652 10659 10668 10676 10684 10692 10699 10705 10709 10713 10716 10720 10723 10724 10725 10727 10728 10730 10731 10729 10728 10724 10725 10723 10717 10714 10711 10707 10702
10513 10517 10522 10527 10535 10543 10554 10566 10577 10589 10601 10613 10623 10631 10638 10645 10652 10658 10665 10672 10680 10686 10692 10697 10702 10706 10708 10711 10714 10716 10717 10718 10718 10718 10721 10716 10714 10713 10710 10708 10706 10701 10696 10693 10688
10534 10537 10542 10548 10557 10566 10574 10584 10594 10603 10611 10618 10625 10630 10636 10641 10647 10653 10659 10666 10673 10679 10685 10689 10694 10698 10700 10703 10705 10706 10707 10708 10708 10706 10708 10706 10699 10699 10696 10694 10691 10687 10683 10679 10676
10556 10557 10560 10565 10573 10580 10588 10595 10603 10609 10616 10621 10626 10630 10634 10639 10644 10650 10657 10664 10670 10675 10679 10684 10688 10690 10692 10693 10695 10696 10696 10696 10695 10694 10692 10689 10687 10685 10682 10679 10677 10675 10672 10668 10663
10574 10577 10580 10583 10586 10592 10598 10603 10608 10613 10618 10622 10626 10630 10634 10639 10643 10649 10655 10661 10666 10670 10675 10679 10682 10683 10684 10685 10685 10685 10684 10682 10681 10680 10679 10676 10676 10670 10669 10667 10665 10663 10661 10656 10652
10591 10591 10593 10596 10600 10603 10606 10609 10613 10617 10620 10624 10627 10630 10634 10638 10642 10646 10651 10657 10661 10665 10668 10671 10672 10673 10674 10675 10674 10673 10671 10670 10670 10669 10667 10665 10662 10657 10653 10653 10652 10650 10648 10645 10642
10606 10604 10604 10606 10609 10612 10614 10617 10620 10622 10625 10627 10630 10633 10637 10640 10643 10646 10650 10653 10656 10659 10661 10663 10664 10664 10664 10664 10663 10663 10663 10662 10662 10659 10656 10652 10647 10644 10641 10640 10639 10638 10637 10636 10636
10621 10618 10616 10616 10618 10620 10621 10623 10625 10627 10630 10632 10634 10637 10639 10642 10644 10646 10648 10651 10653 10654 10656 10656 10657 10657 10658 10658 10658 10656 10656 10655 10653 10651 10646 10641 10637 10634 10633 10633 10633 10634 10634 10634 10634
10640 10634 10629 10627 10628 10628 10629 10629 10631 10632 10633 10635 10637 10639 10641 10643 10645 10647 10648 10649 10650 10652 10653 10653 10653 10654 10653 10653 10651 10650 10648 10648 10648 10646 10643 10640 10637 10635 10634 10634 10633 10633 10634 10635 10635
10655 10651 10646 10643 10640 10638 10637 10636 10636 10637 10637 10638 10640 10641 10643 10645 10646 10647 10648 10648 10649 10649 10650 10650 10650 10650 10650 10649 10648 10647 10646 10646 10646 10645 10643 10641 10639 10637 10637 10637 10637 10638 10638 10639 10639
10666 10663 10660 10656 10654 10651 10649 10648 10646 10645 10644 10644 10644 10645 10647 10648 10649 10649 10650 10650 10650 10651 10651 10651 10651 10651 10650 10650 10650 10650 10650 10650 10649 10647 10646 10645 10644 10644 10644 10643 10643 10643 10643 10643 10643
10676 10672 10670 10667 10665 10664 10662 10660 10658 10656 10655 10655 10654 10654 10654 10654 10655 10655 10654 10654 10654 10655 10656 10656 10657 10657 10657 10657 10657 10657 10656 10655 10654 10653 10652 10651 10651 10650 10649 10648 10648 10647 10646 10645 10644
10683 10681 10678 10676 10673 10672 10670 10669 10668 10668 10667 10666 10665 10665 10664 10663 10663 10663 10663 10663 10663 10663 10663 10663 10663 10663 10663 10663 10662 10661 10660 10659 10659 10657 10656 10655 10654 10652 10650 10649 10648 10646 10645 10644 10642
10685 10685 10684 10683 10681 10678 10676 10675 10674 10674 10674 10673 10673 10672 10672 10671 10670 10670 10670 10669 10669 10669 10668 10668 10667 10667 10667 10666 10665 10664 10663 10661 10660 10659 10658 10656 10654 10652 10650 10647 10646 10645 10643 10642 10641
10685 10685 10685 10684 10684 10683 10682 10680 10679 10678 10677 10677 10676 10675 10675 10674 10673 10672 10672 10672 10671 10670 10670 10670 10670 10669 10668 10667 10666 10665 10664 10662 10661 10659 10657 10655 10653 10650 10649 10647 10645 10643 10640 10638 10636
10685 10684 10683 10683 10683 10683 10683 10682 10681 10680 10679 10678 10677 10677 10676 10675 10674 10673 10673 10672 10671 10671 10670 10670 10669 10668 10667 10666 10665 10663 10662 10661 10659 10657 10654 10652 10650 10647 10645 10642 10639 10637 10634 10632 10629
10680 10681 10681 10681 10680 10680 10680 10680 10680 10679 10678 10677 10676 10675 10674 10673 10672 10671 10670 10670 10669 10668 10667 10666 10664 10663 10661 10661 10660 10658 10657 10656 10654 10651 10649 10647 10644 10641 10638 10634 10632 10629 10626 10623 10621